CW8733 Weather Reports


Display with metric or nautical units.
time (UTC)temp
F
wind
direction
speed
MPH
gust
MPH
rain 1hr
in
rain 24hr
in
rain mn
in
humidity
%
barometer
mb
20260506204016 78 315 4.0 12.0 0.00 0.00 0.00 27 1015.8
20260506203016 76 293 7.0 12.0 0.00 0.00 0.00 28 1015.8
20260506202016 76 293 8.0 12.0 0.00 0.00 0.00 29 1015.9
20260506201016 76 225 4.0 9.0 0.00 0.00 0.00 27 1016.0
20260506200016 76 270 7.0 13.0 0.00 0.00 0.00 28 1016.1
20260506195016 76 180 3.0 7.0 0.00 0.00 0.00 29 1016.3
20260506194016 74 248 3.0 10.0 0.00 0.00 0.00 29 1016.2
20260506193016 74 270 5.0 11.0 0.00 0.00 0.00 30 1016.4
20260506192016 74 248 5.0 10.0 0.00 0.00 0.00 30 1016.4
20260506191016 74 248 3.0 6.0 0.00 0.00 0.00 30 1016.6
20260506190016 74 315 4.0 9.0 0.00 0.00 0.00 30 1016.6
20260506185016 74 293 3.0 7.0 0.00 0.00 0.00 31 1016.6
20260506184016 73 315 2.0 6.0 0.00 0.00 0.00 31 1016.8
20260506183056 73 225 3.0 6.0 0.00 0.00 0.00 31 1016.9
20260506182056 72 315 3.0 7.0 0.00 0.00 0.00 32 1017.2
20260506181016 72 180 2.0 7.0 0.00 0.00 0.00 32 1017.3
20260506180056 70 225 3.0 9.0 0.00 0.00 0.00 34 1017.2
20260506175016 70 338 2.0 6.0 0.00 0.00 0.00 36 1017.2
20260506174016 70 338 3.0 8.0 0.00 0.00 0.00 36 1017.3
20260506173016 69 315 6.0 11.0 0.00 0.00 0.00 38 1017.3
20260506172016 69 270 5.0 9.0 0.00 0.00 0.00 40 1017.3
20260506171017 68 113 1.0 10.0 0.00 0.00 0.00 41 1017.3
20260506170016 67 225 4.0 7.0 0.00 0.00 0.00 42 1017.0
20260506165016 67 225 5.0 9.0 0.00 0.00 0.00 43 1017.1
20260506164036 66 270 3.0 7.0 0.00 0.00 0.00 46 1017.1
20260506163016 66 270 4.0 9.0 0.00 0.00 0.00 48 1017.0
20260506162016 65 270 3.0 6.0 0.00 0.00 0.00 47 1017.0
20260506161016 65 248 5.0 8.0 0.00 0.00 0.00 50 1017.0
20260506160016 64 293 3.0 5.0 0.00 0.00 0.00 50 1016.9
20260506155036 64 248 4.0 7.0 0.00 0.00 0.00 52 1017.2
20260506154016 63 225 4.0 8.0 0.00 0.00 0.00 51 1017.0
20260506153036 63 248 2.0 5.0 0.00 0.00 0.00 51 1016.9
20260506152016 63 203 3.0 5.0 0.00 0.00 0.00 53 1017.1
20260506151016 62 248 1.0 2.0 0.00 0.00 0.00 52 1017.0
20260506150016 62 270 2.0 4.0 0.00 0.00 0.00 53 1017.0
20260506145016 62 203 1.0 3.0 0.00 0.00 0.00 54 1017.0
20260506144016 61 248 2.0 3.0 0.00 0.00 0.00 57 1017.1
20260506143016 60 0.0 2.0 0.00 0.00 0.00 61 1016.9
20260506142016 58 180 1.0 3.0 0.00 0.00 0.00 66 1017.0
20260506141036 57 0.0 0.0 0.00 0.00 0.00 67 1016.9
20260506140016 56 0.0 0.0 0.00 0.00 0.00 72 1016.7
20260506135016 55 0.0 0.0 0.00 0.00 0.00 78 1016.6
20260506134035 52 0.0 2.0 0.00 0.00 0.00 83 1016.3
20260506133016 50 0.0 0.0 0.00 0.00 0.00 85 1016.1
20260506132016 49 68 1.0 2.0 0.00 0.00 0.00 85 1015.9
20260506131015 48 68 1.0 2.0 0.00 0.00 0.00 84 1015.8
20260506130016 49 0.0 0.0 0.00 0.00 0.00 84 1015.8
20260506125015 49 180 1.0 2.0 0.00 0.00 0.00 82 1015.8
20260506124015 49 0.0 0.0 0.00 0.00 0.00 81 1015.8
20260506123036 49 23 2.0 4.0 0.00 0.01 0.00 81 1015.7
20260506122015 50 23 2.0 3.0 0.00 0.01 0.00 80 1015.5
20260506121056 50 23 2.0 3.0 0.00 0.01 0.00 79 1015.6
20260506120015 50 23 2.0 4.0 0.00 0.01 0.00 79 1015.5
20260506115015 50 23 2.0 3.0 0.00 0.01 0.00 79 1015.4
20260506114015 50 23 3.0 5.0 0.00 0.01 0.00 79 1015.3
20260506113015 50 23 3.0 4.0 0.00 0.01 0.00 79 1015.3
20260506112015 50 45 4.0 5.0 0.00 0.01 0.00 80 1015.2
20260506111016 50 45 3.0 4.0 0.00 0.02 0.00 79 1015.3
20260506110016 51 23 2.0 3.0 0.00 0.02 0.00 79 1015.3
20260506105015 51 68 3.0 4.0 0.00 0.03 0.00 79 1015.3
20260506104015 51 45 2.0 3.0 0.00 0.03 0.00 78 1015.3
20260506103016 51 68 1.0 2.0 0.00 0.03 0.00 78 1015.2
20260506102016 51 113 1.0 2.0 0.00 0.04 0.00 77 1015.0
20260506100015 52 0.0 3.0 0.00 0.05 0.00 77 1015.0
20260506095016 52 0.0 2.0 0.00 0.05 0.00 77 1014.9
20260506094015 52 135 3.0 5.0 0.00 0.05 0.00 76 1014.8
20260506093015 52 135 2.0 4.0 0.00 0.06 0.00 75 1014.8
20260506092016 53 135 2.0 4.0 0.00 0.07 0.00 74 1014.9
20260506091016 53 23 1.0 2.0 0.00 0.08 0.00 73 1014.6
20260506090015 53 23 2.0 3.0 0.00 0.09 0.00 72 1014.5
20260506085015 54 113 2.0 3.0 0.00 0.09 0.00 69 1014.5
20260506084035 54 135 2.0 4.0 0.00 0.10 0.00 67 1014.8
20260506083016 55 135 1.0 3.0 0.00 0.11 0.00 66 1014.7
20260506082016 56 0.0 0.0 0.00 0.12 0.00 66 1015.1
20260506081035 56 0.0 0.0 0.00 0.13 0.00 64 1015.1
20260506073017 57 158 3.0 7.0 0.00 0.16 0.00 60 1015.1
20260506072118 57 135 1.0 4.0 0.00 0.17 0.00 61 1015.1
20260506071017 58 135 1.0 3.0 0.00 0.18 0.00 58 1015.2
20260506062018 59 113 2.0 4.0 0.00 0.20 0.18 57 1014.6
20260506061017 59 113 1.0 3.0 0.00 0.21 0.18 56 1014.5
20260506051017 62 180 5.0 9.0 0.00 0.23 0.18 54 1014.1
20260506045017 62 203 4.0 6.0 0.00 0.23 0.18 53 1013.7
20260506044017 62 180 3.0 6.0 0.00 0.24 0.18 53 1013.6
20260506043017 62 203 2.0 5.0 0.00 0.24 0.18 51 1013.4
20260506042017 62 180 2.0 4.0 0.00 0.24 0.18 50 1013.2
20260506041017 62 180 1.0 2.0 0.00 0.24 0.18 52 1013.1
20260506040017 63 135 1.0 2.0 0.00 0.24 0.18 51 1013.0
20260506035017 64 0.0 2.0 0.00 0.24 0.18 47 1012.9
20260506034017 65 0.0 2.0 0.00 0.24 0.18 44 1012.8
20260506033017 65 0.0 2.0 0.00 0.24 0.18 42 1012.7
20260506032017 66 270 2.0 5.0 0.00 0.24 0.18 39 1012.7
20260506031018 66 248 2.0 5.0 0.00 0.25 0.18 38 1012.6
20260506030017 66 248 5.0 9.0 0.00 0.26 0.18 37 1012.4
20260506025037 67 270 3.0 6.0 0.00 0.27 0.18 36 1012.2
20260506024017 67 248 4.0 8.0 0.00 0.28 0.18 36 1012.1
20260506023017 67 270 5.0 9.0 0.00 0.29 0.18 36 1011.9
20260506022017 67 270 7.0 14.0 0.00 0.30 0.18 36 1011.7
20260506021017 68 270 8.0 15.0 0.00 0.30 0.18 36 1011.6
20260506020017 69 270 9.0 18.0 0.00 0.31 0.18 35 1011.6
20260506015017 70 270 8.0 15.0 0.00 0.33 0.18 35 1011.5
20260506014017 70 248 9.0 17.0 0.00 0.34 0.18 34 1011.3
20260506013017 71 270 9.0 15.0 0.00 0.34 0.18 33 1011.3
20260506012017 71 248 7.0 13.0 0.00 0.35 0.18 31 1011.3
20260506011017 72 225 10.0 18.0 0.00 0.35 0.18 30 1011.2
20260506010017 72 248 10.0 17.0 0.00 0.36 0.18 30 1011.1
20260506005017 71 225 10.0 18.0 0.00 0.37 0.18 31 1011.0
20260506004017 71 248 9.0 15.0 0.00 0.37 0.18 31 1011.0
20260506003017 72 248 10.0 21.0 0.00 0.38 0.18 32 1010.9
20260506002037 72 270 6.0 12.0 0.00 0.39 0.18 34 1010.9
20260506001017 71 225 7.0 13.0 0.00 0.41 0.18 34 1011.0
20260506000017 71 225 7.0 12.0 0.00 0.41 0.18 33 1010.7
20260505235017 72 225 7.0 14.0 0.00 0.41 0.18 31 1010.8
20260505234017 71 225 8.0 22.0 0.00 0.41 0.18 32 1010.5
20260505233017 72 225 11.0 20.0 0.00 0.41 0.18 31 1010.8
20260505232017 72 203 7.0 14.0 0.00 0.41 0.18 30 1010.7
20260505231017 72 225 11.0 19.0 0.00 0.41 0.18 29 1010.7
20260505230017 73 248 12.0 18.0 0.00 0.41 0.18 29 1010.8
20260505225017 75 225 13.0 21.0 0.00 0.41 0.18 29 1011.1
20260505224057 75 248 9.0 17.0 0.00 0.41 0.18 32 1011.1
20260505223017 74 270 11.0 20.0 0.00 0.41 0.18 34 1011.1
20260505222017 73 270 12.0 20.0 0.00 0.41 0.18 34 1011.1
20260505221017 74 270 15.0 26.0 0.00 0.41 0.18 33 1011.3
20260505220017 73 248 13.0 22.0 0.00 0.41 0.18 34 1011.3
20260505215037 73 248 12.0 24.0 0.00 0.41 0.18 35 1011.3
20260505214037 73 248 16.0 27.0 0.00 0.41 0.18 37 1011.5
20260505213017 74 248 15.0 25.0 0.00 0.41 0.18 38 1011.5
20260505212017 73 248 12.0 22.0 0.00 0.41 0.18 39 1011.4
20260505211017 72 248 11.0 20.0 0.00 0.41 0.18 42 1011.4
20260505210017 71 248 11.0 20.0 0.00 0.41 0.18 44 1011.6
20260505205037 70 270 5.0 12.0 0.00 0.41 0.18 47 1011.4